Weather History for Oxford, NC

Change the Weather History Date:

Tuesday, January 31, 2012

  Actual Average (KTDF) Record (KTDF)
Temperature  
Mean Temperature 50 °F -  
Max Temperature 64 °F 50 °F 75 °F (2002)
Min Temperature 37 °F 27 °F 3 °F (1966)
Degree Days  
Heating Degree Days 14    
Moisture  
Dew Point 25 °F    
Average Humidity 41    
Maximum Humidity 65    
Minimum Humidity 22    
Precipitation  
Precipitation 0.00 in - - ()
Sea Level Pressure  
Sea Level Pressure 30.30 in    
Wind  
Wind Speed 9 mph (SSW)    
Max Wind Speed 15 mph    
Max Gust Speed 18 mph    
Visibility 10 miles    
Events      
Averages and records for this station are not official NWS values.
T = Trace of Precipitation, MM = Missing Value Source: NWS Daily Summary

Daily Weather History Graph

Daily Weather History Graph

Search for Another Location

Airport:

Trip Planner

Search our weather history database for the weather conditions in past years. The results will help you decide how hot, cold, wet, or windy it might be!

Date:

Astronomy

Jan. 31, 2012 Rise Set
Actual Time 7:16 AM EST 5:38 PM EST
Civil Twilight 6:49 AM EST 6:06 PM EST
Nautical Twilight 6:18 AM EST 6:36 PM EST
Astronomical Twilight 5:48 AM EST 7:07 PM EST
Moon 11:29 AM EST (1/31) 1:02 AM EST (1/31)
Length of Visible Light 11h 16m
Length of Day
10h 22m
First Quarter, 55% of the Moon is Illuminated
Jan 31
First Quarter
Feb 7
Full
Feb 14
Last Quarter
Feb 21
New
Feb 29
First Quarter

Hourly Weather History & Observations

Time (EST) Temp. Windchill Dew Point Humidity Pressure Visibility Wind Dir Wind Speed Gust Speed Precip Events Conditions
12:15 AM 39.2 °F 34.2 °F 23.0 °F 52% 30.35 in 10.0 mi SSW 6.9 mph - N/A   Clear
12:35 AM 42.8 °F 38.6 °F 23.0 °F 46% 30.35 in 10.0 mi SSW 6.9 mph - N/A   Clear
12:55 AM 41.0 °F 35.2 °F 23.0 °F 49% 30.34 in 10.0 mi SSW 9.2 mph - N/A   Clear
1:15 AM 42.8 °F 37.0 °F 23.0 °F 46% 30.34 in 10.0 mi SSW 10.4 mph - N/A   Clear
1:35 AM 42.8 °F 37.0 °F 23.0 °F 46% 30.34 in 10.0 mi SSW 10.4 mph - N/A   Clear
2:15 AM 41.0 °F 34.3 °F 23.0 °F 49% 30.33 in 10.0 mi SSW 11.5 mph - N/A   Clear
2:35 AM 41.0 °F 34.3 °F 23.0 °F 49% 30.32 in 10.0 mi SSW 11.5 mph - N/A   Clear
2:55 AM 41.0 °F 34.3 °F 23.0 °F 49% 30.32 in 10.0 mi SSW 11.5 mph - N/A   Clear
3:15 AM 41.0 °F 34.7 °F 23.0 °F 49% 30.32 in 10.0 mi SSW 10.4 mph - N/A   Clear
3:35 AM 41.0 °F 35.2 °F 23.0 °F 49% 30.32 in 10.0 mi SSW 9.2 mph - N/A   Clear
3:55 AM 37.4 °F 31.4 °F 23.0 °F 56% 30.32 in 10.0 mi SSW 8.1 mph - N/A   Clear
4:15 AM 37.4 °F 31.4 °F 24.8 °F 60% 30.32 in 10.0 mi SW 8.1 mph - N/A   Clear
4:35 AM 37.4 °F 31.4 °F 24.8 °F 60% 30.32 in 10.0 mi SSW 8.1 mph - N/A   Clear
4:55 AM 37.4 °F 31.4 °F 23.0 °F 56% 30.32 in 10.0 mi SSW 8.1 mph - N/A   Clear
5:15 AM 39.2 °F 33.6 °F 23.0 °F 52% 30.32 in 10.0 mi SSW 8.1 mph - N/A   Clear
5:35 AM 39.2 °F 33.6 °F 23.0 °F 52% 30.32 in 10.0 mi SSW 8.1 mph - N/A   Clear
5:55 AM 37.4 °F 31.4 °F 23.0 °F 56% 30.32 in 10.0 mi SSW 8.1 mph - N/A   Clear
6:15 AM 37.4 °F 31.4 °F 24.8 °F 60% 30.33 in 10.0 mi SSW 8.1 mph - N/A   Clear
6:35 AM 37.4 °F 31.4 °F 24.8 °F 60% 30.33 in 10.0 mi SSW 8.1 mph - N/A   Clear
6:55 AM 37.4 °F 31.4 °F 26.6 °F 65% 30.34 in 10.0 mi SSW 8.1 mph - N/A   Clear
7:15 AM 37.4 °F 30.8 °F 26.6 °F 65% 30.34 in 10.0 mi SSW 9.2 mph - N/A   Clear
7:35 AM 37.4 °F 30.3 °F 26.6 °F 65% 30.34 in 10.0 mi SSW 10.4 mph - N/A   Clear
7:55 AM 39.2 °F 33.0 °F 26.6 °F 61% 30.34 in 10.0 mi SSW 9.2 mph - N/A   Clear
8:15 AM 41.0 °F 35.2 °F 26.6 °F 57% 30.35 in 10.0 mi SSW 9.2 mph - N/A   Clear
8:35 AM 42.8 °F 37.5 °F 26.6 °F 53% 30.35 in 10.0 mi SW 9.2 mph - N/A   Clear
9:15 AM 44.6 °F 39.2 °F 26.6 °F 49% 30.35 in 10.0 mi SW 10.4 mph - N/A   Clear
9:35 AM 48.2 °F - 26.6 °F 43% 30.35 in 10.0 mi SW 11.5 mph - N/A   Clear
9:55 AM 50.0 °F - 26.6 °F 40% 30.35 in 10.0 mi SW 11.5 mph - N/A   Clear
10:15 AM 50.0 °F - 24.8 °F 37% 30.36 in 10.0 mi SW 11.5 mph - N/A   Clear
10:35 AM 51.8 °F - 26.6 °F 38% 30.35 in 10.0 mi SW 10.4 mph - N/A   Clear
10:55 AM 53.6 °F - 26.6 °F 35% 30.35 in 10.0 mi SSW 9.2 mph - N/A   Clear
11:15 AM 55.4 °F - 26.6 °F 33% 30.34 in 10.0 mi SW 9.2 mph - N/A   Clear
11:35 AM 57.2 °F - 26.6 °F 31% 30.33 in 10.0 mi South 12.7 mph - N/A   Clear
11:55 AM 57.2 °F - 26.6 °F 31% 30.33 in 10.0 mi SSW 10.4 mph 16.1 mph N/A   Clear
12:15 PM 59.0 °F - 26.6 °F 29% 30.32 in 10.0 mi SSW 11.5 mph - N/A   Clear
12:35 PM 60.8 °F - 26.6 °F 27% 30.30 in 10.0 mi SW 9.2 mph - N/A   Clear
12:55 PM 60.8 °F - 26.6 °F 27% 30.29 in 10.0 mi SW 8.1 mph 16.1 mph N/A   Clear
1:15 PM 62.6 °F - 26.6 °F 26% 30.29 in 10.0 mi SSW 11.5 mph - N/A   Clear
1:35 PM 62.6 °F - 26.6 °F 26% 30.27 in 10.0 mi SW 10.4 mph 17.3 mph N/A   Clear
1:55 PM 64.4 °F - 24.8 °F 22% 30.26 in 10.0 mi SSW 11.5 mph 16.1 mph N/A   Clear
2:15 PM 64.4 °F - 26.6 °F 24% 30.26 in 10.0 mi SSW 10.4 mph - N/A   Clear
2:35 PM 64.4 °F - 24.8 °F 22% 30.25 in 10.0 mi South 9.2 mph - N/A   Clear
2:55 PM 64.4 °F - 24.8 °F 22% 30.24 in 10.0 mi SSW 13.8 mph 18.4 mph N/A   Clear
3:15 PM 64.4 °F - 24.8 °F 22% 30.24 in 10.0 mi SSW 15.0 mph - N/A   Clear
3:35 PM 64.4 °F - 24.8 °F 22% 30.24 in 10.0 mi South 12.7 mph 17.3 mph N/A   Clear
3:55 PM 64.4 °F - 26.6 °F 24% 30.23 in 10.0 mi SSW 12.7 mph 18.4 mph N/A   Clear
4:15 PM 64.4 °F - 26.6 °F 24% 30.23 in 10.0 mi SSW 13.8 mph - N/A   Clear
4:35 PM 62.6 °F - 26.6 °F 26% 30.22 in 10.0 mi SSW 13.8 mph 18.4 mph N/A   Clear
4:55 PM 62.6 °F - 26.6 °F 26% 30.21 in 10.0 mi South 10.4 mph 17.3 mph N/A   Clear
5:15 PM 60.8 °F - 26.6 °F 27% 30.22 in 10.0 mi South 10.4 mph - N/A   Clear
5:35 PM 60.8 °F - 26.6 °F 27% 30.22 in 10.0 mi SSW 10.4 mph - N/A   Clear
5:55 PM 59.0 °F - 28.4 °F 31% 30.23 in 10.0 mi SSW 10.4 mph - N/A   Clear
6:15 PM 57.2 °F - 28.4 °F 33% 30.24 in 10.0 mi SSW 9.2 mph - N/A   Clear
6:35 PM 57.2 °F - 28.4 °F 33% 30.24 in 10.0 mi SSW 9.2 mph - N/A   Clear
6:55 PM 55.4 °F - 28.4 °F 36% 30.25 in 10.0 mi SSW 8.1 mph - N/A   Clear
7:15 PM 55.4 °F - 28.4 °F 36% 30.25 in 10.0 mi South 8.1 mph - N/A   Clear
7:35 PM 55.4 °F - 28.4 °F 36% 30.24 in 10.0 mi South 10.4 mph - N/A   Clear
7:55 PM 55.4 °F - 28.4 °F 36% 30.24 in 10.0 mi South 11.5 mph - N/A   Clear
8:15 PM 55.4 °F - 28.4 °F 36% 30.24 in 10.0 mi South 10.4 mph - N/A   Clear
8:35 PM 53.6 °F - 28.4 °F 38% 30.24 in 10.0 mi SSW 11.5 mph - N/A   Clear
8:55 PM 53.6 °F - 28.4 °F 38% 30.24 in 10.0 mi SSW 11.5 mph - N/A   Clear
9:15 PM 53.6 °F - 28.4 °F 38% 30.24 in 10.0 mi SSW 10.4 mph 17.3 mph N/A   Clear
9:35 PM 53.6 °F - 28.4 °F 38% 30.24 in 10.0 mi SSW 11.5 mph - N/A   Clear
9:55 PM 53.6 °F - 28.4 °F 38% 30.25 in 10.0 mi SSW 10.4 mph - N/A   Clear
10:15 PM 51.8 °F - 28.4 °F 41% 30.25 in 10.0 mi SSW 10.4 mph - N/A   Clear
10:35 PM 51.8 °F - 28.4 °F 41% 30.25 in 10.0 mi SSW 10.4 mph - N/A   Clear
10:55 PM 51.8 °F - 28.4 °F 41% 30.25 in 10.0 mi SSW 9.2 mph - N/A   Clear
11:15 PM 51.8 °F - 28.4 °F 41% 30.25 in 10.0 mi SSW 11.5 mph - N/A   Clear
11:35 PM 51.8 °F - 28.4 °F 41% 30.25 in 10.0 mi SSW 10.4 mph - N/A   Clear
11:55 PM 50.0 °F - 28.4 °F 43% 30.24 in 10.0 mi SSW 11.5 mph - N/A   Clear